Regional Weather Roundup
Issued by NWS

Home | Current Version | Previous Version | Text Only | Print | Product List | Glossary Off
Versions: 1 2 3 4 5 6 7 8 9 10 11 12 13 14 15 16 17 18 19 20 21 22 23 24 25 26 27 28 29 30 31 32 33 34 35 36 37 38 39 40 41 42 43 44 45 46 47 48 49 50

000
ASUS43 KFSD 310510
RWRSD

WEATHER ROUNDUP FOR SOUTH DAKOTA
NATIONAL WEATHER SERVICE SIOUX FALLS SD
1100 PM CST FRI JAN 30 2015

NOTE: "FAIR" INDICATES FEW OR NO CLOUDS BELOW 12,000 FEET WITH NO
SIGNIFICANT WEATHER AND/OR OBSTRUCTIONS TO VISIBILITY.


SDZ001>005-009-010-012>017-310600-
NORTHWEST AND NORTH CENTRAL SOUTH DAKOTA

CITY           SKY/WX    TMP DP  RH WIND       PRES   REMARKS
BUFFALO          N/A     30  24  78 S3        30.05F
FAITH            N/A     27  21  78 N6        30.11F WCI  20
MOBRIDGE       CLEAR     26  23  88 N5        30.12S WCI  20
$$

SDZ012>016-024>037-041>051-057-063-072>074-310600-
SOUTHWEST AND SOUTH CENTRAL SOUTH DAKOTA

CITY           SKY/WX    TMP DP  RH WIND       PRES   REMARKS
RAPID CTY ARPT MOCLDY    29  22  75 N9        30.11F WCI  20
PIERRE         CLEAR     27  22  81 CALM      30.12F
CUSTER         CLOUDY    30  16  56 CALM      30.08S
ELLSWORTH AFB  MOCLDY    31  21  65 N8        30.11S WCI  24
PHILIP         MOCLDY    27  21  78 CALM      30.11F
PINE RIDGE     CLOUDY    26  21  81 CALM      30.10F
WINNER         FAIR      36  24  62 W3        30.12F
$$

SDZ004>011-016>023-039-040-310600-
NORTHEAST SOUTH DAKOTA

CITY           SKY/WX    TMP DP  RH WIND       PRES   REMARKS
ABERDEEN       CLEAR     29  25  85 N8        30.16R WCI  21
WATERTOWN      CLEAR     23  20  88 N5        30.11S WCI  17
SISSETON         N/A     30  27  88 N15       30.13S WCI  19
$$

SDZ017-020-022-023-036>040-048>070-310600-
SOUTHEAST SOUTH DAKOTA

CITY           SKY/WX    TMP DP  RH WIND       PRES   REMARKS
SIOUX FALLS    CLEAR     32  26  78 SW6       30.13F WCI  26
HURON          CLEAR     24  22  91 NW9       30.13F WCI  14
CHAMBERLAIN    PTCLDY    31  25  78 N6        30.12S WCI  25
MITCHELL       CLEAR     29  25  85 CALM      30.13F
YANKTON        PTCLDY    36  27  69 SW9       30.15F
$$

ABBREVIATIONS USED IN REMARKS
   TC - TEMPERATURE IN CELSIUS
  WCI - WIND CHILL INDEX
   HX - HEAT INDEX
  VSB - VISIBILITY



USA.gov is the U.S. government's official web portal to all federal, state and local government web resources and services.